Home > Weather > Odesa > Past weeks

Flag for Ukraine Weather for the Past 2 Weeks in Odesa, Ukraine

Now
36 °F

Partly sunny.


Feels Like: 28 °F
Forecast: 34 / 42 °F
Wind: 10 mph from South

Location: Odesa Airport

Current Time: Feb 8, 2016 at 8:38:43 AM

Latest Report: Feb 8, 2016 at 8:00 AM


Visibility: N/A

Pressure: 30.33 "Hg

Humidity: 75%

Dew point: 28 °F

Location of OdesaLocation

Historic Weather in Odesa — Graph

°F

Odesa Temperature Yesterday

Maximum temperature yesterday: 37 °F (at 10:00 AM)
Minimum temperature yesterday: 23 °F (at 6:00 AM)
Average temperature yesterday: 32 °F

High & Low Weather Summary for the Past Weeks

 TemperatureHumidityPressure
High50 °F (Feb 3, 1:30 PM)100% (Jan 25, 11:00 PM)30.54 "Hg (Jan 25, 11:00 PM)
Low-2 °F (Jan 25, 4:30 AM)52% (Feb 7, 10:00 AM)29.74 "Hg (Feb 4, 7:30 AM)
Average32 °F87%30.17 "Hg
* Reported Jan 24 7:00 AM — Feb 8 7:00 AM, Odesa, Weather by CustomWeather, © 2016

Note: Actual official high and low records may vary slightly from our data, if they occured in-between our weather recording intervals... More about our weather records

Advertising

Odesa Weather History for the Previous 24 Hours

 ConditionsComfort  
Time TempWeatherWind HumidityBarometerVisibility
7:00 AM
Mon, Feb 8
36 °FPassing clouds.8 mph75%30.33 "HgN/A
6:30 AM36 °FPassing clouds.8 mph75%30.33 "HgN/A
6:00 AM36 °FPassing clouds.10 mph70%30.33 "HgN/A
5:30 AM36 °FPassing clouds.8 mph75%30.33 "HgN/A
5:00 AM34 °FPassing clouds.8 mph81%30.33 "HgN/A
4:00 AM32 °FPartly cloudy.8 mph80%30.33 "HgN/A
3:00 AM30 °FPassing clouds.8 mph86%30.36 "HgN/A
2:30 AM32 °FClear.8 mph80%30.36 "Hg10 mi
2:00 AM32 °FClear.8 mph80%30.36 "Hg10 mi
1:00 AM32 °FClear.8 mph87%30.39 "Hg10 mi
12:30 AM32 °FClear.8 mph80%30.39 "Hg10 mi
12:00 AM32 °FClear.8 mph80%30.39 "Hg10 mi
11:30 PM
Sun, Feb 7
32 °FClear.10 mph80%30.39 "Hg10 mi
11:00 PM32 °FClear.10 mph80%30.39 "Hg10 mi
10:30 PM32 °FClear.10 mph75%30.39 "Hg10 mi
10:00 PM32 °FClear.10 mph75%30.39 "Hg10 mi
9:30 PM32 °FClear.8 mph75%30.39 "Hg10 mi
9:00 PM32 °FClear.8 mph75%30.39 "Hg10 mi
8:30 PM32 °FClear.8 mph75%30.39 "Hg10 mi
8:00 PM32 °FClear.8 mph80%30.39 "Hg10 mi
7:30 PM32 °FClear.8 mph75%30.39 "Hg10 mi
7:00 PM32 °FClear.8 mph75%30.39 "Hg10 mi
6:30 PM30 °FClear.6 mph80%30.39 "Hg10 mi
5:30 PM32 °FClear.8 mph75%30.39 "Hg10 mi
5:00 PM32 °FSunny.8 mph75%30.39 "Hg10 mi
4:30 PM34 °FSunny.10 mph70%30.39 "Hg10 mi
4:00 PM36 °FPassing clouds.10 mph65%30.39 "HgN/A
3:30 PM36 °FPassing clouds.10 mph65%30.39 "HgN/A
3:00 PM36 °FPassing clouds.10 mph65%30.39 "HgN/A
2:30 PM36 °FPassing clouds.10 mph65%30.39 "HgN/A
2:00 PM37 °FScattered clouds.10 mph60%30.39 "HgN/A
1:30 PM37 °FScattered clouds.8 mph60%30.39 "HgN/A
1:00 PM37 °FScattered clouds.8 mph60%30.39 "HgN/A
12:30 PM37 °FScattered clouds.10 mph56%30.42 "HgN/A
12:00 PM37 °FPassing clouds.8 mph56%30.42 "HgN/A
11:30 AM37 °FPassing clouds.8 mph56%30.42 "HgN/A
11:00 AM37 °FPassing clouds.8 mph52%30.42 "HgN/A
10:30 AM37 °FPassing clouds.6 mph52%30.42 "HgN/A
10:00 AM37 °FSunny.3 mph52%30.42 "Hg10 mi
9:30 AM36 °FSunny.6 mph56%30.42 "Hg10 mi
9:00 AM34 °FSunny.No wind75%30.42 "Hg10 mi
8:30 AM28 °FSunny.No wind93%30.42 "Hg10 mi
8:00 AM25 °FClear.No wind93%30.42 "Hg6 mi
Weather by CustomWeather, © 2016

See weather overviewHow to use our weather pages